Tri-Cities, TN

4:04 PM EST on December 15, 2019 (GMT -0500)
Tri-Cities Regional Tennessee / Virginia

Weather History for KTRI - October, 2019

Change the Weather History Date:

Sunday, October 20, 2019

  Actual Average Record
Temperature  
Mean Temperature 57 °F 55 °F  
Max Temperature 62 °F 68 °F 85 °F (2016)
Min Temperature 51 °F 42 °F 26 °F (1972)
Degree Days  
Heating Degree Days 8 10  
Month to date heating degree days 89 151  
Since 1 July heating degree days 89 204  
Cooling Degree Days 0 0  
Month to date cooling degree days 67 9  
Year to date cooling degree days 1452 977  
Growing Degree Days 6 (Base 50)    
Moisture  
Dew Point 53 °F    
Average Humidity 92    
Maximum Humidity 100    
Minimum Humidity 84    
Precipitation  
Precipitation 0.48 in 0.06 in 1.25 in (1944)
Month to date precipitation 3.66 1.30  
Year to date precipitation 45.27 33.74  
Snow  
Snow 0.00 in 0.00 in - ()
Month to date snowfall 0.0 0.0  
Since 1 July snowfall 0.0 0.0  
Since 1 September snowfall 0.0 0.0  
Snow Depth 0.00 in    
Sea Level Pressure  
Sea Level Pressure 29.90 in    
Wind  
Wind Speed 2 mph (South)    
Max Wind Speed 8 mph    
Max Gust Speed 11 mph    
Visibility 4 miles    
Events Fog , Rain    
T = Trace of Precipitation, MM = Missing Value Source: NWS Daily Summary

Daily Weather History Graph

Daily Weather History Graph

Search for Another Location

Airport or City:

Astronomy

Oct. 20, 2019 Rise Set
Actual Time 7:41 AM EDT 6:47 PM EDT
Civil Twilight 7:15 AM EDT 7:13 PM EDT
Nautical Twilight 6:44 AM EDT 7:43 PM EDT
Astronomical Twilight 6:15 AM EDT 8:13 PM EDT
Moon No Moon Rise 2:01 PM EDT (10/20)
Length of Visible Light 11h 58m
Length of Day
11h 05m
Waning Gibbous, 59% of the Moon is Illuminated
Oct 20
Waning Gibbous
Oct 21
Last Quarter
Oct 27
New
Nov 4
First Quarter
Nov 12
Full

Hourly Weather History & Observations

Time (EDT) Temp. Dew Point Humidity Pressure Visibility Wind Dir Wind Speed Gust Speed Precip Events Conditions
12:11 AM 51.1 °F 48.9 °F 92% 29.87 in 2.5 mi East 5.8 mph - 0.18 in Rain Heavy Rain
12:53 AM 51.1 °F 48.9 °F 92% 29.81 in 2.0 mi Variable 3.5 mph - 0.40 in Rain Heavy Rain
1:04 AM 51.1 °F 48.9 °F 92% 29.85 in 2.0 mi East 3.5 mph - 0.06 in Rain Heavy Rain
1:53 AM 51.1 °F 50.0 °F 96% 29.79 in 3.0 mi East 4.6 mph - 0.31 in Rain Light Rain
2:07 AM 51.1 °F 50.0 °F 96% 29.83 in 3.0 mi Calm Calm - 0.00 in Rain Light Rain
2:19 AM 51.1 °F 50.0 °F 96% 29.83 in 3.0 mi Variable 3.5 mph - 0.01 in Rain Light Rain
2:53 AM 52.0 °F 50.0 °F 93% 29.78 in 3.0 mi ENE 5.8 mph - 0.03 in Rain Heavy Rain
3:16 AM 52.0 °F 50.0 °F 93% 29.83 in 2.0 mi Calm Calm - 0.11 in Rain Light Rain
3:53 AM 52.0 °F 50.0 °F 93% 29.77 in 2.5 mi ENE 4.6 mph - 0.12 in Rain Light Rain
4:35 AM 52.0 °F 50.0 °F 93% 29.81 in 5.0 mi East 6.9 mph - 0.01 in   Overcast
4:53 AM 52.0 °F 50.0 °F 93% 29.77 in 5.0 mi Calm Calm - 0.01 in   Overcast
5:24 AM 52.0 °F 50.0 °F 93% 29.82 in 8.0 mi Calm Calm - N/A   Overcast
5:41 AM 53.1 °F 50.0 °F 89% 29.82 in 10.0 mi Calm Calm - N/A   Overcast
5:53 AM 53.1 °F 51.1 °F 93% 29.79 in 10.0 mi Calm Calm - N/A   Overcast
6:28 AM 53.1 °F 51.1 °F 93% 29.84 in 9.0 mi Calm Calm - N/A   Overcast
6:53 AM 53.1 °F 51.1 °F 93% 29.81 in 6.0 mi Calm Calm - N/A   Overcast
7:18 AM 53.1 °F 51.1 °F 93% 29.86 in 2.0 mi Calm Calm - 0.01 in   Light Drizzle
7:28 AM 52.0 °F 51.1 °F 97% 29.86 in 2.0 mi Calm Calm - 0.01 in   Light Drizzle
7:36 AM 52.0 °F 51.1 °F 97% 29.86 in 1.0 mi Calm Calm - 0.01 in   Light Drizzle
7:44 AM 52.0 °F 51.1 °F 97% 29.86 in 1.0 mi Calm Calm - 0.01 in   Light Drizzle
7:53 AM 52.0 °F 51.1 °F 97% 29.83 in 1.0 mi Calm Calm - 0.01 in   Light Drizzle
8:00 AM 53.1 °F 51.1 °F 93% 29.86 in 1.5 mi Calm Calm - 0.00 in   Light Drizzle
8:27 AM 53.1 °F 52.0 °F 96% 29.88 in 1.5 mi SW 3.5 mph - 0.01 in   Light Drizzle
8:53 AM 54.0 °F 52.0 °F 93% 29.85 in 1.5 mi Calm Calm - 0.01 in   Overcast
9:32 AM 55.0 °F 53.1 °F 93% 29.91 in 2.0 mi Calm Calm - N/A   Overcast
9:53 AM 55.0 °F 53.1 °F 93% 29.88 in 2.0 mi SSW 4.6 mph - N/A   Overcast
10:09 AM 55.0 °F 53.1 °F 93% 29.93 in 2.0 mi SSW 4.6 mph - N/A   Overcast
10:37 AM 55.0 °F 53.1 °F 93% 29.93 in 1.5 mi Calm Calm - 0.00 in   Light Drizzle
10:53 AM 55.9 °F 54.0 °F 93% 29.90 in 1.5 mi South 4.6 mph - 0.00 in   Light Drizzle
11:32 AM 55.9 °F 54.0 °F 93% 29.95 in 1.5 mi SSW 5.8 mph - 0.00 in   Light Drizzle
11:53 AM 55.9 °F 54.0 °F 93% 29.91 in 1.5 mi South 4.6 mph - 0.01 in   Light Drizzle
12:53 PM 57.9 °F 55.0 °F 90% 29.91 in 2.0 mi WSW 5.8 mph - 0.00 in   Overcast
1:53 PM 57.9 °F 55.9 °F 93% 29.91 in 2.0 mi SW 6.9 mph - 0.00 in   Overcast
2:53 PM 61.0 °F 57.0 °F 87% 29.90 in 7.0 mi WSW 5.8 mph - N/A   Overcast
3:53 PM 61.0 °F 57.0 °F 87% 29.91 in 10.0 mi West 5.8 mph - N/A   Overcast
4:53 PM 62.1 °F 57.0 °F 84% 29.92 in 10.0 mi SW 4.6 mph - N/A   Overcast
5:53 PM 61.0 °F 55.9 °F 83% 29.93 in 10.0 mi Calm Calm - N/A   Overcast
6:53 PM 61.0 °F 57.0 °F 87% 29.94 in 10.0 mi Calm Calm - N/A   Overcast
7:10 PM 60.8 °F 57.2 °F 88% 29.98 in 10.0 mi Calm Calm - N/A   Overcast
7:23 PM 60.1 °F 57.0 °F 90% 29.98 in 10.0 mi East 3.5 mph - N/A   Overcast
7:48 PM 59.0 °F 57.2 °F 94% 29.99 in 10.0 mi Calm Calm - N/A   Mostly Cloudy
7:53 PM 59.0 °F 57.0 °F 93% 29.94 in 10.0 mi Calm Calm - N/A   Overcast
8:53 PM 55.9 °F 54.0 °F 93% 29.96 in 10.0 mi Calm Calm - N/A   Scattered Clouds
9:11 PM 55.9 °F 54.0 °F 93% 30.01 in 10.0 mi North 3.5 mph - N/A   Mostly Cloudy
9:53 PM 55.0 °F 54.0 °F 96% 29.97 in 10.0 mi Calm Calm - N/A   Mostly Cloudy
10:29 PM 54.0 °F 53.1 °F 97% 30.03 in 0.2 mi Calm Calm - N/A Fog Fog
10:53 PM 54.0 °F 53.1 °F 97% 29.99 in 0.2 mi Calm Calm - N/A Fog Fog
11:13 PM 54.0 °F 53.1 °F 97% 30.03 in 0.5 mi Calm Calm - N/A Fog Fog
11:17 PM 54.0 °F 53.1 °F 97% 30.03 in 0.2 mi Calm Calm - N/A Fog Fog
11:24 PM 55.0 °F 54.0 °F 96% 30.03 in 0.5 mi Calm Calm - N/A Fog Fog
11:53 PM 55.9 °F 54.0 °F 93% 29.99 in 0.5 mi Calm Calm - N/A Fog Fog
11:56 PM 55.9 °F 55.0 °F 97% 30.02 in 0.5 mi Calm Calm - N/A Fog Fog